Torna al catalogo

STARLINK-37314

AttivoComunicazioniSSO
NORAD 68740·PAYLOAD·🇺🇸 United States

Lanciato Apr 15, 2026 da Vandenberg Space Force Base

Loading…

Prossimi Passaggi (prossime 24 ore)

TLE

AggiornatoSource: CelesTrak SupGP

Epoca: Sep 15, 2026, 03:24 UTC

1 68740C 26082N   26258.14215278 -.00003497  00000+0 -10854-3 0  2589
2 68740  97.2845 120.3718 0001807  94.8847 302.4635 15.33445563    13

Traccia STARLINK-37314 in tempo reale con AllMySat

Download on the App Store